| 型号/型号规格 | 厂商 | 封装 | 批号 | 数量 | 更新日期 | 询价 | ||
|---|---|---|---|---|---|---|---|---|
| NVBLS001N06C | ONSEMI/安森美 | 8-HPSOF | 24+ | 20000 | 2025-10-30 | |||
| NTBLS0D7N06C | ONSEMI/安森美 | 8-HPSOF | 24+ | 20000 | 2025-10-30 | |||
| NTBL082N65S3HF | ONSEMI/安森美 | 8-HPSOF | 24+ | 20000 | 2025-10-30 | |||
| FDBL86561-F085 | ONSEMI/安森美 | 8-HPSOF | 24+ | 20000 | 2025-10-30 | |||
| NTBL095N65S3H | ONSEMI/安森美 | 8-HPSOF | 24+ | 20000 | 2025-10-30 | |||
| NTBLS001N06C | ONSEMI/安森美 | 8-HPSOF | 24+ | 20000 | 2025-10-30 | |||
| NTBLS002N08MC | ONSEMI/安森美 | 8-HPSOF | 24+ | 20000 | 2025-10-30 | |||
| NTBLS1D5N08MC | ONSEMI/安森美 | 8-HPSOF | 24+ | 20000 | 2025-10-30 |
| 型号/型号规格 | 厂商 | 封装 | 批号 | 数量 | 更新日期 | 询价 | ||
|---|---|---|---|---|---|---|---|---|
| SCT30N120 | ST/意法 | TO-247-3 | 24+ | 20000 | 2025-10-30 | |||
| SCT30N120D2 | ST/意法 | TO-247-3 | 24+ | 20000 | 2025-10-30 | |||
| C2M0080120D | Wolfspeed | TO-247-3 | 24+ | 20000 | 2025-10-30 | |||
| C3M0075120D | Wolfspeed | TO-247-3 | 24+ | 20000 | 2025-10-30 | |||
| C2M0160120D | Wolfspeed | TO-247-3 | 24+ | 20000 | 2025-10-30 | |||
| SCT3040KLHRC11 | ROHM/罗姆 | TO-247-3 | 24+ | 20000 | 2025-10-30 | |||
| SCT3030KLGC11 | ROHM/罗姆 | TO-247-3 | 24+ | 20000 | 2025-10-30 | |||
| SCT3030KLHRC11 | ROHM/罗姆 | TO-247-3 | 24+ | 20000 | 2025-10-30 |
| 型号/型号规格 | 厂商 | 封装 | 批号 | 数量 | 更新日期 | 询价 | ||
|---|---|---|---|---|---|---|---|---|
| IPT020N10N5ATMA1 | INFINEON/英飞凌 | PG-HSOF-8 | 24+ | 20000 | 2025-10-30 | |||
| IPB044N15N5ATMA1 | INFINEON/英飞凌 | TO-263-7 | 24+ | 20000 | 2025-10-30 | |||
| IPB060N15N5ATMA1 | INFINEON/英飞凌 | TO-263-7 | 24+ | 20000 | 2025-10-30 | |||
| IPB065N15N3GATMA1 | INFINEON/英飞凌 | TO-263-7 | 24+ | 20000 | 2025-10-30 | |||
| IPB160N04S4LH1ATMA1 | INFINEON/英飞凌 | TO-263-7 | 24+ | 20000 | 2025-10-30 | |||
| IPB240N03S4LR8ATMA1 | INFINEON/英飞凌 | TO-263-7 | 24+ | 20000 | 2025-10-30 | |||
| AUIRLS3034-7TRL | INFINEON/英飞凌 | TO-263-7 | 24+ | 20000 | 2025-10-30 | |||
| IPB180N06S4H1ATMA2 | INFINEON/英飞凌 | TO-263-7 | 24+ | 20000 | 2025-10-30 |
| 型号/型号规格 | 厂商 | 封装 | 批号 | 数量 | 更新日期 | 询价 | ||
|---|---|---|---|---|---|---|---|---|
| IMW120R090M1HXKSA1 | INFINEON/英飞凌 | TO-247-3 | 24+ | 20000 | 2025-10-30 | |||
| BUK6C2R1-55C,118 | NXP/恩智浦 | TO-263-7 | 24+ | 20000 | 2025-10-30 | |||
| BUK7C06-40AITE,118 | NXP/恩智浦 | TO-263-7 | 24+ | 20000 | 2025-10-30 | |||
| BUK7C10-75AITE,118 | NXP/恩智浦 | TO-263-7 | 24+ | 20000 | 2025-10-30 | |||
| FDB016N04AL7 | ONSEMI/安森美 | TO-263-7 | 24+ | 20000 | 2025-10-30 | |||
| FDB0690N1507L | ONSEMI/安森美 | TO-263-7 | 24+ | 20000 | 2025-10-30 | |||
| NP160N055TUJ-E1-AY | RENESAS/瑞萨 | TO-263-7 | 24+ | 20000 | 2025-10-30 | |||
| AUIRLS8409-7P | INFINEON/英飞凌 | TO-263-7 | 24+ | 20000 | 2025-10-30 |
| 型号/型号规格 | 厂商 | 封装 | 批号 | 数量 | 更新日期 | 询价 | ||
|---|---|---|---|---|---|---|---|---|
| SCT50N120 | ST/意法 | TO-247-3 | 24+ | 20000 | 2025-10-30 | |||
| C2M0040120D | Wolfspeed | TO-247-3 | 24+ | 20000 | 2025-10-30 | |||
| C2M0280120D | Wolfspeed | TO-247-3 | 24+ | 20000 | 2025-10-30 | |||
| CMF10120D | Wolfspeed | TO-247-3 | 24+ | 20000 | 2025-10-30 | |||
| CMF20120D | Wolfspeed | TO-247-3 | 24+ | 20000 | 2025-10-30 | |||
| STH140N6F7-6 | ST/意法 | TO-263-7 | 24+ | 20000 | 2025-10-30 | |||
| STH260N6F6-6 | ST/意法 | TO-263-7 | 24+ | 20000 | 2025-10-30 | |||
| STH265N6F6-6AG | ST/意法 | TO-263-7 | 24+ | 20000 | 2025-10-30 |
| 型号/型号规格 | 厂商 | 封装 | 批号 | 数量 | 更新日期 | 询价 | ||
|---|---|---|---|---|---|---|---|---|
| SCT20N120 | ST/意法 | TO-247-3 | 24+ | 20000 | 2025-10-30 | |||
| SCT3040KLGC11 | ROHM/罗姆 | TO-247-3 | 24+ | 20000 | 2025-10-30 | |||
| SCT2160KEC | ROHM/罗姆 | TO-247-3 | 24+ | 20000 | 2025-10-30 | |||
| FDB0105N407L | ONSEMI/安森美 | TO-263-7 | 24+ | 20000 | 2025-10-30 | |||
| FDB0165N807L | ONSEMI/安森美 | TO-263-7 | 24+ | 20000 | 2025-10-30 | |||
| FDB0170N607L | ONSEMI/安森美 | TO-263-7 | 24+ | 20000 | 2025-10-30 | |||
| FDB0190N807L | ONSEMI/安森美 | TO-263-7 | 24+ | 20000 | 2025-10-30 | |||
| FDB0250N807L | ONSEMI/安森美 | TO-263-7 | 24+ | 20000 | 2025-10-30 |
| 型号/型号规格 | 厂商 | 封装 | 批号 | 数量 | 更新日期 | 询价 | ||
|---|---|---|---|---|---|---|---|---|
| SCT3160KLGC11 | ROHM/罗姆 | TO-247-3 | 24+ | 20000 | 2025-10-30 | |||
| IPB010N06NATMA1 | INFINEON/英飞凌 | TO-263-7 | 24+ | 20000 | 2025-10-30 | |||
| IPB014N06NATMA1 | INFINEON/英飞凌 | TO-263-7 | 24+ | 20000 | 2025-10-30 | |||
| STH185N10F3-6 | ST/意法 | TO-263-7 | 24+ | 20000 | 2025-10-30 | |||
| IRFS4115-7PPBF | INFINEON/英飞凌 | TO-263-7 | 24+ | 20000 | 2025-10-30 | |||
| IRFS7430TRL7PP | INFINEON/英飞凌 | TO-263-7 | 24+ | 20000 | 2025-10-30 | |||
| IRFS7434-7PPBF | INFINEON/英飞凌 | TO-263-7 | 24+ | 20000 | 2025-10-30 | |||
| IRFS7530TRL7PP | INFINEON/英飞凌 | TO-263-7 | 24+ | 20000 | 2025-10-30 |
| 型号/型号规格 | 厂商 | 封装 | 批号 | 数量 | 更新日期 | 询价 | ||
|---|---|---|---|---|---|---|---|---|
| IMW120R045M1XKSA1 | INFINEON/英飞凌 | TO-247-3 | 24+ | 20000 | 2025-10-30 | |||
| IMZ120R045M1XKSA1 | INFINEON/英飞凌 | TO-247-4 | 24+ | 20000 | 2025-10-30 | |||
| C3M0075120K | Wolfspeed | TO-247-4L | 24+ | 20000 | 2025-10-30 | |||
| AUIRFS8407-7TRL | INFINEON/英飞凌 | TO-263-7 | 24+ | 20000 | 2025-10-30 | |||
| FDBL0200N100 | ONSEMI/安森美 | 8-HPSOF | 24+ | 20000 | 2025-10-30 | |||
| FDBL0210N80 | ONSEMI/安森美 | 8-HPSOF | 24+ | 20000 | 2025-10-30 | |||
| FDBL86062-F085 | ONSEMI/安森美 | 8-HPSOF | 24+ | 20000 | 2025-10-30 |
| 型号/型号规格 | 厂商 | 封装 | 批号 | 数量 | 更新日期 | 询价 | ||
|---|---|---|---|---|---|---|---|---|
| NT5AD512M16C4-HR | NANYA/南亚 | GBA | 24+ | 25680 | 2026-06-09 | |||
| BCR402UW6 | AJM | SOT23-6 | 26+ | 145300 | 2026-06-03 | |||
| BUK9880-55A/CUX | NEXPERIA/安世 | SOT223 | 25+ | 52800 | 2026-03-24 | |||
| LM317DCYR | TI/德州仪器 | SOT223/TO252/TO263/TO220 | 25+ | 58200 | 2025-11-25 | |||
| LM317 | TI/德州仪器 | SOT223/TO252/TO263/TO220 | 25+ | 58200 | 2025-11-25 | |||
| LM337 | TI/德州仪器 | SOT223/TO263/TO220/TO252 | 25+ | 58200 | 2025-11-25 | |||
| LM337IMP | TI/德州仪器 | SOT223 | 25+ | 58200 | 2025-11-25 | |||
| UPW1H271MPD/1TD | NICHICON/尼吉康 | D10XL25 | 24+ | 154800 | 2025-11-25 |
| 型号/型号规格 | 厂商 | 封装 | 批号 | 数量 | 更新日期 | 询价 | ||
|---|---|---|---|---|---|---|---|---|
| NTBV45N06LT4G | ONSEMI/安森美 | D2PAK | 24+ | 20000 | 2025-10-30 | |||
| RSS065N06FRATB | ROHM/罗姆 | 8-SOP | 24+ | 20000 | 2025-10-30 | |||
| NVD5862NT4G-VF01 | ONSEMI/安森美 | DPAK | 24+ | 20000 | 2025-10-30 | |||
| PHB32N06LT,118 | NXP/恩智浦 | D2PAK | 24+ | 20000 | 2025-10-30 | |||
| PSMN015-60BS,118 | NXP/恩智浦 | D2PAK | 24+ | 20000 | 2025-10-30 | |||
| PSMN7R6-60BS,118 | NXP/恩智浦 | D2PAK | 24+ | 20000 | 2025-10-30 | |||
| BUK962R5-60E,118 | NXP/恩智浦 | D2PAK | 24+ | 20000 | 2025-10-30 | |||
| BUK766R0-60E,118 | NXP/恩智浦 | D2PAK | 24+ | 20000 | 2025-10-30 |
| 型号/型号规格 | 厂商 | 封装 | 批号 | 数量 | 更新日期 | 询价 | ||
|---|---|---|---|---|---|---|---|---|
| IPT007N06NATMA1 | INFINEON/英飞凌 | PG-HSOF-8 | 24+ | 20000 | 2025-10-30 | |||
| IRFH7545TRPBF | INFINEON/英飞凌 | PQFN5x6 | 24+ | 20000 | 2025-10-30 | |||
| NTD18N06LT4G | ONSEMI/安森美 | DPAK | 24+ | 20000 | 2025-10-30 | |||
| SI4850EY-T1-E3 | VISHAY/威世 | 8-SOIC | 24+ | 20000 | 2025-10-30 | |||
| IRF7855TRPBF | INFINEON/英飞凌 | 8-SO | 24+ | 20000 | 2025-10-30 | |||
| AOT264L | AOS/万代 | TO-220 | 24+ | 20000 | 2025-10-30 | |||
| AOT262L | AOS/万代 | TO-220 | 24+ | 20000 | 2025-10-30 | |||
| SI4850EY-T1-GE3 | VISHAY/威世 | 8-SOIC | 24+ | 20000 | 2025-10-30 |
| 型号/型号规格 | 厂商 | 封装 | 批号 | 数量 | 更新日期 | 询价 | ||
|---|---|---|---|---|---|---|---|---|
| BUK9880-55A/CUX | NEXPERIA/安世 | SOT223 | 25+ | 52800 | 2026-03-24 | |||
| BUK9880-55A | NEXPERIA/安世 | SOT223 | 25+ | 19850 | 2025-11-04 | |||
| PSMN1R3-30YL | NEXPERIA/安世 | SOT1023 | 25+ | 19850 | 2025-11-03 | |||
| PSMN1R2-25YL | NEXPERIA/安世 | SOT1023 | 25+ | 23800 | 2025-11-03 | |||
| BUK9J0R9-40H | NEXPERIA/安世 | SOT1023 | 25+ | 18580 | 2025-11-03 | |||
| BUK7J1R0-40H | NEXPERIA/安世 | SOT1023 | 25+ | 18580 | 2025-11-03 | |||
| PSMN2R0-55YLH | NEXPERIA/安世 | SOT1023 | 25+ | 18580 | 2025-11-03 | |||
| PSMN3R5-80YSE | NEXPERIA/安世 | SOT1023 | 25+ | 19850 | 2025-11-03 |
| 型号/型号规格 | 厂商 | 封装 | 批号 | 数量 | 更新日期 | 询价 | ||
|---|---|---|---|---|---|---|---|---|
| FD6288Q | FORTIOR峰岹/ 安佳美 | QFN24 | 24+ | 20000 | 2025-10-30 | |||
| IRS2113S | INFINEON/英飞凌 | SOP16(W) | 24+ | 20000 | 2025-10-30 | |||
| IR2113S | INFINEON/英飞凌 | SOP16(W) | 24+ | 20000 | 2025-10-30 | |||
| IR2181STRPBF | INFINEON/英飞凌 | SOP8 | 24+ | 20000 | 2025-10-30 | |||
| IRS2186STRPBF | INFINEON/英飞凌 | SOP8 | 24+ | 20000 | 2025-10-30 | |||
| IRS21867S | INFINEON/英飞凌 | SOP8 | 24+ | 20000 | 2025-10-30 | |||
| IR2101STRPBF | INFINEON/英飞凌 | SOP8 | 24+ | 20000 | 2025-10-30 | |||
| IRS2003STRPBF | INFINEON/英飞凌 | SOP8 | 24+ | 20000 | 2025-10-30 |
| 型号/型号规格 | 厂商 | 封装 | 批号 | 数量 | 更新日期 | 询价 | ||
|---|---|---|---|---|---|---|---|---|
| RGT16BM65DTL | AJM | TO252 | 25+ | 18580 | 2025-10-30 | |||
| STGD6M65DF2 | AJM | TO252 | 25+ | 18580 | 2025-10-30 | |||
| STGD3NB60FT4 | AJM | TO252 | 25+ | 18580 | 2025-10-30 | |||
| FGD3N60B3S | AJM | TO252 | 25+ | 18580 | 2025-10-30 | |||
| IKD03N60RFATMA1 | AJM | TO252 | 25+ | 18580 | 2025-10-30 | |||
| STGD5H60DF | AJM | TO252 | 25+ | 18580 | 2025-10-30 | |||
| STGD8NC60KDT4 | AJM | TO252 | 25+ | 18580 | 2025-10-30 | |||
| STGD3HF60HDT4 | AJM | TO252 | 25+ | 18580 | 2025-10-30 |
| 型号/型号规格 | 厂商 | 封装 | 批号 | 数量 | 更新日期 | 询价 | ||
|---|---|---|---|---|---|---|---|---|
| FDBL86066-F085 | ONSEMI/安森美 | 8-HPSOF | 24+ | 20000 | 2025-10-30 | |||
| NVD5C632NLT4G | ONSEMI/安森美 | DPAK | 24+ | 20000 | 2025-10-30 | |||
| BUK966R5-60E,118 | NEXPERIA/安世 | D2PAK | 24+ | 20000 | 2025-10-30 | |||
| IPT019N08N5ATMA1 | INFINEON/英飞凌 | PG-HSOF-8 | 24+ | 20000 | 2025-10-30 | |||
| BUK763R1-60E,118 | NEXPERIA/安世 | D2PAK | 24+ | 20000 | 2025-10-30 | |||
| TK6R7P06PL,RQ | TOSHIBA/东芝 | DPAK | 24+ | 20000 | 2025-10-30 | |||
| FDMC8030 | FAIRCHILD/仙童 | DFN3*3A-8-EP | 24+ | 50000 | 2025-10-30 | |||
| TK4R3E06PL,S1X | TOSHIBA/东芝 | TO-220 | 24+ | 20000 | 2025-10-30 |
| 型号/型号规格 | 厂商 | 封装 | 批号 | 数量 | 更新日期 | 询价 | ||
|---|---|---|---|---|---|---|---|---|
| BUK969R0-60E,118 | NXP/恩智浦 | D2PAK | 24+ | 20000 | 2025-10-30 | |||
| IAUT165N08S5N029ATMA2 | INFINEON/英飞凌 | PG-HSOF-8 | 24+ | 20000 | 2025-10-30 | |||
| IPLU250N04S41R7XTMA1 | INFINEON/英飞凌 | PG-HSOF-8 | 24+ | 20000 | 2025-10-30 | |||
| IAUT200N08S5N023ATMA1 | INFINEON/英飞凌 | PG-HSOF-8 | 24+ | 20000 | 2025-10-30 | |||
| IAUT240N08S5N019ATMA1 | INFINEON/英飞凌 | PG-HSOF-8 | 24+ | 20000 | 2025-10-30 | |||
| IRFP7537PBF | INFINEON/英飞凌 | TO-247 | 24+ | 20000 | 2025-10-30 | |||
| BUK962R5-60E,118 | NEXPERIA/安世 | D2PAK | 24+ | 20000 | 2025-10-30 | |||
| FDS86540 | ONSEMI/安森美 | 8-SOIC | 24+ | 20000 | 2025-10-30 |
| 型号/型号规格 | 厂商 | 封装 | 批号 | 数量 | 更新日期 | 询价 | ||
|---|---|---|---|---|---|---|---|---|
| SVD2955T4G | ONSEMI/安森美 | DPAK | 24+ | 20000 | 2025-10-30 | |||
| NTP30N06L | ONSEMI/安森美 | TO-220 | 24+ | 10000 | 2025-10-30 | |||
| AO2301 | AOS/万代 | SOT-23 | 24+ | 1000000 | 2025-10-30 | |||
| AO2302 | AOS/万代 | SOT-23 | 24+ | 1000000 | 2025-10-30 | |||
| AONR36368 | AOS/万代 | 8-DFN-EP3x3 | 24+ | 20000 | 2025-10-30 | |||
| AONS21357 | AOS/万代 | 8-DFN5x6 | 24+ | 20000 | 2025-10-30 | |||
| AON7380 | AOS/万代 | 8-DFN-EP3x3 | 24+ | 20000 | 2025-10-30 | |||
| AON7566 | AOS/万代 | 8-DFN-EP3x3 | 24+ | 20000 | 2025-10-30 |